Regional Weather Roundup
Issued by NWS

Home | Current Version | Previous Version | Graphics & Text | Print | Product List | Glossary On
Versions: 1 2 3 4 5 6 7 8 9 10 11 12 13 14 15 16 17 18 19 20 21 22 23 24 25 26 27 28
000
ASUS45 KBOU 230410
RWRCO

WEATHER ROUNDUP FOR COLORADO
NATIONAL WEATHER SERVICE DENVER/BOULDER CO
1000 PM MDT TUE MAY 22 2018

NOTE: "FAIR" INDICATES FEW OR NO CLOUDS BELOW 12000 FEET WITH NO
SIGNIFICANT WEATHER AND/OR OBSTRUCTIONS TO VISIBILITY.

COZ001>005-013-030-031-230500-
...NORTHWEST COLORADO...

CITY           SKY/WX    TMP DP  RH WIND       PRES   REMARKS
CRAIG          FAIR      49  43  80 E10       30.09R
HAYDEN         FAIR      45  42  89 E7        30.13R
MEEKER         FAIR      48  42  80 NE5       30.07R
RANGELY        FAIR      56  46  69 E9        30.00R
RABBIT EARS PA FAIR      36  34  93 CALM      30.28R
STEAMBOAT SPGS FAIR      45  45  99 N3        30.12R
WALDEN         FAIR      41  39  93 SE7       30.19R
$$

COZ006>008-011-230500-
...WEST CENTRAL VALLEYS...

CITY           SKY/WX    TMP DP  RH WIND       PRES   REMARKS
GRAND JUNCTION FAIR      56  45  66 CALM      29.95R
MONTROSE       FAIR      50  45  83 SE6       30.05R
EAGLE          FAIR      51  42  71 E3        30.11R
RIFLE          FAIR      52  43  71 CALM      30.04R
DELTA          FAIR      54  49  83 N5        30.02R
NUCLA          FAIR      59  36  41 NW3       30.02R
$$

COZ017>023-064>068-230500-
...SOUTHWEST COLORADO...

CITY           SKY/WX    TMP DP  RH WIND       PRES   REMARKS
DURANGO        FAIR      60  28  29 CALM      30.01R
CORTEZ         FAIR      53  28  38 E6        29.97R
PAGOSA SPRINGS FAIR      59  21  23 N5        30.07S
TELLURIDE      CLOUDY    49  32  52 SE5       30.18R
WOLF CREEK PAS FAIR      39  21  48 SW5       30.37R
$$

COZ009-010-012-014-032>034-037-058>063-230500-
...CENTRAL COLORADO...

CITY           SKY/WX    TMP DP  RH WIND       PRES   REMARKS
ASPEN          FAIR      44  37  76 S7        30.14R
BUENA VISTA    FAIR      49  37  62 W5        30.13R
COPPER MTN     FAIR      37  36  93 CALM      30.36R
BERTHOUD PASS  HAZE      32  21  64 NW22      30.36S VSB<1/4 WCI  19
COTTONWOOD PAS FAIR      54  30  40 SW5       30.23R
GUNNISON       FAIR      51  37  58 CALM      30.11R
GRANBY         FAIR      42  40  94 CALM      30.20S
KREMMLING      FAIR      50  45  81 S3        30.17R
LEADVILLE      FAIR      40  35  83 N9        30.22R
MONARCH PASS   FAIR      39  28  65 MISG      30.45R
SALIDA         FAIR      58  36  43 SW8       30.17R
SUNLIGHT       FAIR      36  32  87 E5        30.31R
WILKERSON PASS MOCLDY    43  28  56 W5        30.33R
$$

COZ069>075-230500-
...SAN LUIS VALLEY/SANGRE DE CRISTO MOUNTAINS...

CITY           SKY/WX    TMP DP  RH WIND       PRES   REMARKS
ALAMOSA        FAIR      54  39  57 S14       30.10R
DEL NORTE      MOCLDY    50  33  51 CALM      30.12R
LA VETA PASS   FAIR      46  32  57 SW10      30.37R
SAGUACHE       NOT AVBL
$$

COZ035-036-038>040-230500-
...NORTHERN COLORADO FRONT RANGE...

CITY           SKY/WX    TMP DP  RH WIND       PRES   REMARKS
DENVER INTL AP MOCLDY    61  46  57 NW13      29.97R
AURORA         MOCLDY    60  46  61 SE6       30.02R
FRONT RANGE AP MOCLDY    62  48  62 NW5       30.00R
ERIE MUNI ARPT MOCLDY    57  51  79 CALM      30.02R
BOULDER MUN AP LGT RAIN  61  50  67 S7        29.98R
CENTENNIAL     FAIR      59  48  67 SE9       30.03R
BROOMFIELD     PTCLDY    59  46  63 N12       29.99R
FORT COLLINS   FAIR      56  52  86 N8        29.98R
LONGMONT       MOCLDY    60  52  75 SE3       30.00R
$$

COZ041-046-047-076>085-087-088-230500-
...PIKES PEAK/PALMER DIVIDE AND SOUTHERN FOOTHILLS...

CITY           SKY/WX    TMP DP  RH WIND       PRES   REMARKS
COLO. SPRINGS  MOCLDY    65  46  50 SW5       30.02R
A. F. ACADEMY  FAIR      62  43  49 CALM      30.03R
SCHRIEVER AFB  NOT AVBL
CHEYENNE MTN   MOCLDY    62  42  47 SE10      30.00R
ELLICOTT         N/A    N/A N/A N/A SE18      29.98R
FALCON         FAIR      55  46  69 E6        30.06R
FORT CARSON    FAIR      64  45  49 N3        29.97R
LIMON          FAIR      63  44  50 SE13      29.96R
MONUMENT HILL  FAIR      55  43  62 N12       30.10R
CANON CITY     FAIR      68  43  40 N7        29.93R
WALSENBURG     FAIR      63  43  48 S9        29.99R
TRINIDAD       FAIR      64  43  46 S9G21     30.00F
$$

COZ042>045-048>051-090-091-230500-
...NORTHEAST COLORADO...

CITY           SKY/WX    TMP DP  RH WIND       PRES   REMARKS
GREELEY ARPT   FAIR      59  50  72 NW16      29.95R
AKRON          FAIR      67  50  54 S20G28    29.90R
BURLINGTON     FAIR      69  53  56 S17       29.95R
WRAY           FAIR      70  50  49 S15G23    29.89R
YUMA           FAIR      64  36  34 S12       29.90R
STERLING       FAIR      68  50  52 S6        29.88R
HOLYOKE        FAIR      66  52  59 SE9       29.91R
FORT MORGAN    FAIR      67  44  43 S5        29.92R
$$

COZ086-089-092>099-230500-
...SOUTHEAST COLORADO...

CITY           SKY/WX    TMP DP  RH WIND       PRES   REMARKS
PUEBLO         FAIR      71  42  35 S26G37    29.88R
LA JUNTA       FAIR      75  42  30 S16G28    29.90F
LAMAR          FAIR      71  51  49 S10       29.92R
SPRINGFIELD      N/A     69  50  50 W15G26    30.01R
$$




USA.gov is the U.S. government's official web portal to all federal, state and local government web resources and services.